Regional Weather Roundup
Issued by NWS

Home | Current Version | Previous Version | Graphics & Text | Print | Product List | Glossary On
Versions: 1 2 3 4 5 6 7 8 9 10 11 12 13 14 15 16 17 18 19 20 21 22 23 24 25 26 27 28 29 30 31 32 33 34 35 36 37 38 39 40 41 42 43 44 45 46 47 48 49 50
000
ASUS45 KCYS 061210
RWRWY

WYOMING REGIONAL WEATHER ROUNDUP
NATIONAL WEATHER SERVICE CHEYENNE WY
600 AM MDT MON JUL 06 2015

NOTE:  "FAIR" INDICATES FEW OR NO CLOUDS BELOW 12,000 FEET
WITH NO SIGNIFICANT WEATHER AND/OR OBSTRUCTIONS TO VISIBILITY.

WYZ001-061300-
YELLOWSTONE NATIONAL PARK

CITY           SKY/WX    TMP DP  RH WIND       PRES   REMARKS
LK YELLOWSTONE   N/A     43  42  97 CALM      30.37S
6HR MIN TEMP:  43; 6HR MAX TEMP:  50; 6HR PCP:  0.02;

W YELLOWSTONE  NOT AVBL

$$
WYZ002>013-054>058-071-098>099-061300-
NORTHERN WYOMING

CITY           SKY/WX    TMP DP  RH WIND       PRES   REMARKS
JACKSON        CLOUDY    54  52  94 NW5       30.29R
CODY           CLOUDY    50  48  93 NE9       30.29S
GREYBULL       FAIR      54  50  86 NW14      30.23R
6HR MIN TEMP:  54; 6HR MAX TEMP:  59;

WORLAND        MOCLDY    56  53  90 N6        30.25R FOG
6HR MIN TEMP:  55; 6HR MAX TEMP:  58; 6HR PCP: TRACE;

SHERIDAN       CLOUDY    54  51  90 N6        30.27R FOG
6HR MIN TEMP:  53; 6HR MAX TEMP:  57; 6HR PCP:  0.02;

BUFFALO        CLOUDY    53  52  96 N6        30.28R FOG
6HR MIN TEMP:  53; 6HR MAX TEMP:  54; 6HR PCP: TRACE;

GILLETTE       CLOUDY    53  50  89 N8        30.24R
6HR MIN TEMP:  53; 6HR MAX TEMP:  56;

HULETT         CLOUDY    54  52  94 N7        30.25R
NEWCASTLE        N/A     57  50  77 NW5       30.21R HAZE

$$
WYZ014>020-022>026-101>103-061300-
CENTRAL WYOMING

CITY           SKY/WX    TMP DP  RH WIND       PRES   REMARKS
BIG PINEY      CLOUDY    55  50  83 CALM      30.31R
6HR MIN TEMP:  54; 6HR MAX TEMP:  59;

PINEDALE       CLOUDY    52  50  93 CALM      30.31S
DUBOIS         CLOUDY    50  45  81 CALM      30.29F
LANDER         CLOUDY    55  54  96 NE8       30.25R
6HR MIN TEMP:  54; 6HR MAX TEMP:  57; 6HR PCP:  0.10;

RIVERTON       CLOUDY    55  52  89 CALM      30.26S
6HR MIN TEMP:  55; 6HR MAX TEMP:  59; 6HR PCP:  0.11;

CASPER         CLOUDY    54  51  90 NE5       30.26R FOG
6HR MIN TEMP:  53; 6HR MAX TEMP:  55; 6HR PCP:  0.03;

DOUGLAS        CLOUDY    55  54  96 NW5       30.25R FOG
6HR MIN TEMP:  54; 6HR MAX TEMP:  57; 6HR PCP:  0.10;


$$
WYZ021-027>030-104>119-061300-
SOUTHERN WYOMING

CITY           SKY/WX    TMP DP  RH WIND       PRES   REMARKS
EVANSTON       FAIR      53  50  89 E10       30.29R
6HR MIN TEMP:  52; 6HR MAX TEMP:  60;

KEMMERER       PTSUNNY   54  48  82 NE8       30.30S
FORT BRIDGER   CLOUDY    55  55 100 CALM      30.32R
ROCK SPRINGS   CLOUDY    56  53  90 E5        30.29R
6HR MIN TEMP:  55; 6HR MAX TEMP:  57;

DIXON          CLOUDY    55  52  90 CALM      30.29R
RAWLINS        CLOUDY    54  52  93 N6        30.29R
6HR MIN TEMP:  53; 6HR MAX TEMP:  59; 6HR PCP:  0.23;

SARATOGA       CLOUDY    54  52  94 NW8       30.29R
LARAMIE        RAIN      52  51  97 E13       30.27R
6HR MIN TEMP:  52; 6HR MAX TEMP:  57; 6HR PCP:  0.32;

CHEYENNE       LGT RAIN  55  54  96 NE10      30.24R FOG
6HR MIN TEMP:  55; 6HR MAX TEMP:  58; 6HR PCP:  0.04;

TORRINGTON     CLOUDY    59  57  93 N7        30.17R
6HR MIN TEMP:  59; 6HR MAX TEMP:  63; 6HR PCP:  0.23;

PINE BLUFFS    CLOUDY    55  55 100 N10       30.20R

$$



USA.gov is the U.S. government's official web portal to all federal, state and local government web resources and services.